Simultaneous Nadir Overpasses (SNOs) Predictions

Prediction of SNOs between GOES-16 and TERRA Satellite Orbit:

Table of predicted SNOs for the next 14.0 days since TLE Epoch: 11/16/2019
Index Date Time (GOES-16) GOES-16 Lat,Lon TERRA Lat,Lon Distance(km) Time Diff (sec)
1 11/16/2019 15:26:19 -0.01, -75.21 -0.28, -73.79 160.17 80
2 11/17/2019 03:47:43 -0.01, -75.19 -0.83, -78.98 431.46 80
3 11/18/2019 15:14:07 0.02, -75.21 -0.89, -70.83 497.66 80
4 11/19/2019 03:35:31 -0.03, -75.20 -0.21, -76.02 94.14 80
5 11/21/2019 03:20:39 -0.03, -75.20 0.41, -73.06 243.54 80
6 11/21/2019 15:41:54 0.03, -75.22 0.66, -78.22 340.69 80
7 11/23/2019 15:29:42 0.03, -75.24 0.03, -75.26 2.37 80
8 11/25/2019 15:20:11 0.03, -75.26 -0.60, -72.30 336.58 80
9 11/26/2019 03:41:34 -0.03, -75.25 -0.50, -77.49 254.61 80
10 11/28/2019 03:29:22 -0.03, -75.28 0.14, -74.53 84.93 80
11 11/28/2019 15:47:58 0.03, -75.30 0.93, -79.69 499.05 80




NCC Satellite Simultaneous Nadir Overpasses (SNOs) Prediction Service
